GFSMW_prec_cloud_003.txt.gz
Cloud_Cover
0 0 0 0 0 0 3 0 0 0 2 26 14 10 26 57 19 19 98 58 6 16 8 0 100 13 12 100 17 0 0 0 42 0 83 17 4 13 5 9 3 5 0
0 0 0 0 0 0 3 0 0 0 0 26 2 32 98 32 34 29 63 33 100 99 28 10 5 7 76 0 7 0 0 1 22 8 3 90 74 93 78 0 2 7 8
0 0 0 0 0 0 0 0 0 0 0 0 45 11 28 0 58 40 86 20 7 36 10 18 2 23 0 0 0 0 3 4 41 0 10 19 96 64 49 6 1 1 0
0 0 0 0 0 0 0 0 0 0 0 0 13 7 0 1 0 0 5 2 63 26 28 16 34 27 0 0 0 0 5 1 11 23 0 0 5 5 90 100 26 5 5
0 0 0 0 0 0 0 0 0 0 1 0 0 1 0 0 0 0 4 0 11 9 1 4 24 9 0 1 5 0 0 14 0 5 50 14 5 5 63 99 98 98 57
0 0 0 0 0 0 0 0 0 0 0 0 0 0 0 0 0 0 9 0 0 0 0 0 37 0 17 31 5 6 0 5 3 3 49 71 86 82 96 43 91 100 97
0 0 0 0 0 0 0 0 0 0 0 0 0 0 0 0 0 38 1 0 0 0 0 0 11 4 30 69 65 1 24 5 14 6 16 100 100 52 68 100 100 100 100
0 0 0 0 0 0 0 0 0 0 0 0 0 0 0 0 0 0 3 5 0 0 0 1 5 98 95 26 5 5 100 96 84 93 73 100 99 100 99 100 100 100 99
0 0 0 0 0 0 0 0 0 0 0 0 0 0 0 0 0 0 2 11 0 0 0 0 4 50 10 97 96 31 18 100 100 65 92 97 100 100 100 100 100 100 100
0 0 0 0 0 0 0 0 0 0 0 0 0 0 0 1 0 0 12 2 1 2 1 3 55 16 5 100 81 95 37 61 93 99 100 98 96 100 100 100 100 97 98
0 0 0 0 0 0 0 0 0 0 0 0 0 0 0 0 0 0 0 0 0 0 3 5 79 84 29 74 52 14 29 100 100 84 91 93 100 100 100 100 100 100 100
0 0 0 0 0 0 0 0 0 0 0 0 0 0 0 0 0 0 0 0 0 3 5 5 26 6 57 5 18 46 37 76 47 98 100 100 100 93 100 100 100 100 100
94 0 0 0 0 0 0 0 0 0 0 0 0 0 0 0 0 0 0 0 0 5 5 5 0 5 19 17 92 100 89 100 72 48 72 98 100 100 100 100 100 100 100
3 2 0 0 0 0 0 0 0 0 0 0 0 0 0 0 0 0 1 0 0 71 10 0 0 0 0 9 51 79 100 100 96 100 100 100 100 100 100 100 100 100 100
0 0 0 0 0 0 0 0 0 0 0 0 0 0 0 0 0 0 1 0 1 5 5 5 13 66 98 5 4 9 5 44 98 95 100 60 95 100 98 100 100 100 100
5 0 0 0 0 0 0 0 0 0 0 0 0 0 0 0 0 0 39 51 5 5 5 24 97 100 66 0 33 100 100 5 30 60 100 95 85 95 100 100 100 100 100
0 0 0 0 0 3 3 0 0 0 0 0 0 0 0 0 8 54 69 56 35 20 60 17 76 88 56 0 34 100 100 12 90 100 100 72 51 90 99 86 100 100 100
0 0 0 0 0 0 0 0 0 0 0 0 0 0 0 58 100 98 39 72 21 71 96 100 88 5 1 3 76 100 98 36 100 80 81 8 8 41 56 100 95 95 100
0 0 0 0 0 0 0 0 0 0 0 0 0 0 46 60 100 100 87 76 41 100 100 87 48 5 61 91 75 100 85 95 100 100 15 30 62 96 100 98 100 100 100
0 0 0 0 0 0 0 0 0 0 0 0 0 0 93 100 100 89 89 93 100 100 100 98 95 100 84 93 13 16 99 100 100 25 6 5 11 7 6 5 5 5 4
5 5 5 4 1 0 0 0 0 0 0 3 3 14 86 100 100 100 73 100 100 100 96 77 98 33 60 33 87 100 96 54 33 5 5 45 5 16 5 32 4 0 12
5 5 5 5 5 5 3 0 3 2 2 0 72 62 86 88 99 88 100 90 86 100 80 23 84 53 38 16 68 100 100 31 5 4 7 28 94 4 32 42 0 0 0
0 0 5 5 5 5 5 20 99 80 91 98 100 99 100 100 100 62 58 38 71 89 63 78 71 96 37 6 82 100 100 98 18 22 33 5 9 5 11 1 0 4 6
0 2 0 3 6 14 39 37 10 87 56 72 97 100 100 100 100 82 100 100 40 49 92 57 16 3 4 21 83 7 18 68 44 26 0 0 0 0 9 1 10 80 52
34 4 17 23 82 100 38 5 44 68 100 100 100 100 100 95 100 93 64 34 28 77 28 26 2 8 29 32 0 2 15 74 53 0 19 6 15 34 78 71 100 100 100
100 98 76 72 100 84 94 100 97 100 100 100 100 100 94 100 60 54 87 82 78 97 73 39 47 12 46 1 0 0 0 0 0 0 0 2 38 92 100 100 100 82 57

GFSMW_prec_cloud_006.txt.gz
Cloud_Cover
0 0 0 0 0 0 0 0 0 0 2 0 0 0 0 45 82 4 86 3 12 0 0 0 2 66 0 86 100 0 0 3 2 0 76 78 100 30 5 2 3 45 42
0 0 0 0 0 0 0 0 0 0 0 0 0 0 14 0 0 15 46 0 0 0 80 0 0 92 98 0 0 0 0 22 17 0 0 72 71 100 69 5 5 5 71
0 0 0 0 0 0 0 0 0 0 0 0 0 0 1 33 99 34 40 0 21 0 49 0 0 0 14 2 0 0 0 4 5 37 0 20 67 56 90 77 8 5 44
0 0 0 0 0 0 0 0 0 0 0 0 0 0 0 0 3 0 54 0 0 0 0 0 0 0 0 0 0 0 0 0 26 82 5 3 5 60 62 69 100 25 68
0 0 0 0 0 0 0 0 0 0 0 0 0 0 0 0 0 0 1 46 0 0 7 0 0 0 0 0 5 5 0 0 0 0 96 17 5 21 90 100 100 100 47
0 0 0 0 0 0 0 0 0 0 0 0 0 0 0 0 41 62 36 0 0 0 0 8 0 0 0 0 5 5 4 2 1 2 5 9 43 48 27 84 100 99 100
0 0 0 0 0 0 0 0 0 0 0 0 0 0 0 0 0 0 0 0 0 0 0 0 0 0 5 5 5 4 5 4 4 1 4 38 64 28 40 74 99 100 100
1 0 0 0 0 0 0 0 0 0 0 0 0 0 0 0 0 0 0 0 0 0 0 0 1 5 5 5 5 64 5 5 5 4 5 49 91 86 92 100 99 100 100
5 0 0 0 0 0 0 0 0 0 0 0 0 0 0 0 0 0 0 0 0 0 0 0 0 5 45 8 2 5 85 17 5 8 5 81 100 100 100 100 100 100 100
0 4 0 0 0 0 0 0 0 0 0 0 0 0 0 0 0 0 0 0 0 0 4 2 0 19 14 1 0 2 1 4 90 93 38 26 30 43 62 98 95 100 100
14 3 0 0 0 0 0 0 0 0 0 0 0 0 0 0 0 0 0 0 0 0 0 0 0 0 0 0 0 0 0 0 1 2 5 5 19 5 6 59 95 87 100
82 42 1 0 0 0 0 0 0 0 0 0 0 0 0 0 0 0 0 0 0 0 0 0 0 0 0 0 0 1 0 0 0 6 5 54 96 100 100 100 80 99 100
98 5 64 0 0 0 0 0 0 0 0 0 0 0 0 0 0 0 0 0 0 0 0 0 0 0 0 4 5 5 2 1 3 0 31 5 34 100 100 98 14 37 100
100 39 81 3 0 0 0 0 0 0 0 0 0 0 0 0 0 0 0 0 0 0 0 0 0 5 1 3 5 4 4 0 0 0 99 5 13 59 35 96 86 50 100
12 73 22 1 0 0 0 0 0 0 0 0 0 0 0 0 0 0 0 0 0 2 0 4 4 5 5 10 59 25 5 4 4 28 100 28 11 73 92 36 99 93 99
0 3 31 51 0 0 0 0 0 0 0 0 0 0 0 0 0 0 0 0 4 50 64 54 5 65 100 5 5 5 5 68 100 76 100 7 37 100 88 92 32 28 5
0 0 0 0 0 0 0 0 0 0 0 0 0 0 0 0 0 0 0 0 10 58 63 7 55 18 95 86 5 2 30 88 100 99 100 74 69 100 87 19 35 68 92
3 0 0 0 0 0 0 0 0 0 0 0 0 0 0 0 0 0 0 13 60 80 84 63 72 83 33 100 7 3 84 100 100 11 85 82 100 100 7 31 59 83 100
80 41 0 0 0 0 0 0 0 0 0 0 0 0 0 0 0 0 25 40 86 100 100 100 92 61 6 100 8 53 100 100 49 97 98 47 33 48 46 12 5 5 3
95 5 0 0 0 4 0 0 0 0 2 0 0 5 5 5 48 49 24 43 100 69 31 97 100 94 57 90 71 52 67 51 81 87 14 13 5 5 5 27 86 26 5
98 0 22 0 0 0 0 0 0 0 0 5 0 4 11 51 39 24 95 98 14 99 97 100 100 100 83 44 74 24 64 31 2 2 4 79 23 4 32 100 36 4 4
5 2 96 5 0 0 0 0 0 0 0 1 0 2 40 12 96 100 98 100 100 100 100 96 34 6 4 38 100 100 99 12 2 4 40 54 12 5 2 39 5 38 4
1 0 0 0 5 4 0 0 0 0 0 0 1 28 24 93 100 46 98 100 100 100 6 25 5 5 100 100 100 40 70 98 16 24 44 32 5 5 4 0 0 0 0
2 0 0 0 0 5 7 11 12 10 5 5 21 100 99 83 98 82 95 49 100 84 99 11 2 5 4 4 34 10 87 88 42 2 5 5 5 0 4 0 0 0 0
0 0 0 0 0 0 0 1 4 8 99 100 97 66 92 100 94 100 100 100 100 95 83 5 5 3 0 3 5 1 0 0 2 3 0 0 0 0 0 61 100 100 100
33 13 52 1 0 3 82 77 26 100 100 86 83 100 81 100 100 51 67 100 95 22 48 62 24 11 26 14 3 0 0 0 0 0 0 0 0 43 100 100 100 100 100

GFSMW_prec_cloud_009.txt.gz
Cloud_Cover
0 0 0 0 0 0 0 0 0 0 0 0 0 1 5 0 0 0 0 0 0 0 0 0 0 0 60 0 0 0 0 0 0 0 35 51 65 22 1 0 2 5 11
0 0 0 0 0 0 0 0 0 0 0 0 0 0 0 0 0 0 0 0 0 0 0 0 0 0 78 66 0 0 0 0 0 1 0 2 57 69 87 100 60 5 38
0 0 0 0 0 0 0 0 0 0 0 0 0 0 0 0 0 0 0 91 3 0 0 0 0 0 0 0 0 0 0 0 0 0 0 19 1 90 44 30 100 100 71
0 0 0 0 0 0 0 0 0 0 0 0 0 0 0 0 0 0 0 0 0 0 0 0 0 0 0 0 0 0 0 0 0 0 0 4 3 5 84 76 26 11 100
0 0 0 0 0 0 0 0 0 0 0 0 0 0 0 0 0 0 0 0 0 0 0 0 0 0 0 0 0 0 0 0 0 0 0 0 0 9 13 100 100 96 23
0 0 0 0 0 0 0 0 0 0 0 0 0 0 0 0 0 0 0 0 0 0 0 0 0 0 0 0 3 2 1 5 2 0 0 0 0 0 3 8 58 100 100
20 0 0 0 0 0 0 0 0 0 0 0 0 0 0 0 0 0 0 0 0 0 0 0 0 2 5 5 5 5 0 0 5 5 0 5 2 0 2 4 7 16 61
100 4 2 0 0 0 0 0 0 0 0 0 0 0 0 0 0 0 0 0 0 0 0 0 0 3 21 1 0 0 0 0 1 5 3 4 4 5 5 5 6 4 1
100 14 7 11 0 0 0 0 0 0 0 0 0 0 0 0 0 0 0 0 0 0 0 0 0 2 0 0 0 3 5 5 0 0 0 0 0 5 5 5 18 91 75
65 13 5 4 0 0 0 0 0 0 0 0 0 0 0 0 0 0 0 0 0 0 0 0 0 0 0 3 0 5 5 5 0 0 0 0 0 0 5 91 12 5 31
74 17 0 3 0 0 0 0 0 0 0 0 0 0 0 0 0 0 0 0 0 0 0 0 0 0 0 11 15 4 5 3 2 0 0 0 0 2 4 8 94 41 75
0 0 1 0 0 0 0 0 0 0 0 0 0 0 0 0 0 0 0 0 0 0 0 0 0 0 0 0 5 5 5 5 1 0 2 10 1 81 5 5 62 89 56
24 4 5 0 0 0 0 0 0 0 0 0 0 0 0 0 0 0 0 0 0 0 0 0 0 0 0 0 5 5 3 5 5 0 80 100 54 71 6 12 82 58 35
70 4 0 0 0 5 0 0 0 0 0 0 0 0 0 0 0 0 0 0 0 0 0 0 0 5 5 5 5 5 5 3 2 1 70 100 94 66 82 30 99 100 100
55 89 4 5 4 0 0 0 0 0 0 0 0 0 0 0 0 0 0 0 0 0 0 0 0 0 4 25 5 33 5 42 1 2 74 100 100 70 94 20 88 100 100
78 100 7 3 0 0 0 0 0 0 0 0 0 0 0 0 0 0 0 0 0 0 5 5 0 0 0 5 5 5 5 17 3 1 88 100 100 11 97 27 100 100 100
99 32 66 20 1 0 0 0 0 0 0 0 0 0 0 0 0 0 0 0 0 2 5 7 66 13 8 17 6 0 0 5 0 48 97 83 100 18 79 79 93 95 57
17 100 100 100 10 0 0 0 0 0 0 0 0 0 0 0 0 0 0 5 5 4 0 79 100 92 81 94 98 1 0 3 0 86 100 77 58 100 100 90 99 100 100
13 82 73 52 62 18 5 1 5 2 0 5 5 4 0 1 1 2 5 5 10 43 100 100 100 100 100 100 100 95 16 62 99 100 100 86 62 100 38 39 72 88 97
0 4 38 100 100 50 5 3 0 0 0 0 3 2 5 5 4 1 5 23 32 100 100 100 100 100 100 100 88 83 72 100 100 41 5 72 100 15 54 5 5 13 90
0 3 1 5 2 76 5 3 0 0 0 0 0 0 0 0 2 13 16 70 63 27 12 100 91 91 100 100 100 99 89 80 79 95 59 17 58 52 33 7 5 6 43
0 0 5 5 100 18 0 45 1 0 0 0 0 8 39 47 16 5 5 64 22 88 74 94 100 100 100 99 52 15 6 32 99 8 1 34 40 53 27 17 5 5 0
0 0 0 70 24 92 2 0 0 4 0 15 72 85 63 52 16 21 36 29 34 62 10 65 100 29 53 9 12 4 17 99 14 1 35 98 60 17 5 4 0 0 0
0 0 0 0 2 99 32 5 2 0 24 95 95 98 100 66 35 10 17 69 7 39 36 25 24 19 12 19 27 84 100 99 82 8 37 14 4 0 0 0 0 0 0
62 21 0 27 83 54 73 90 55 9 100 90 82 100 100 68 100 86 74 89 89 36 5 12 5 16 28 28 28 85 46 54 26 3 0 0 0 0 0 0 0 0 6
100 100 100 64 67 80 10 38 100 24 97 100 100 100 100 99 39 54 100 99 58 5 28 97 96 27 42 83 84 89 82 33 5 0 0 0 0 1 5 5 0 0 2

GFSMW_prec_cloud_015.txt.gz
Cloud_Cover
0 0 0 0 0 0 0 0 3 5 0 0 0 0 0 0 0 0 0 0 0 0 0 0 0 0 0 0 0 0 0 0 0 0 0 0 0 40 0 2 5 68 9
0 0 0 0 0 0 0 0 3 0 0 0 0 0 0 0 0 0 0 0 0 0 0 0 0 0 0 0 0 0 0 0 0 0 0 0 4 86 0 0 0 9 60
0 0 0 0 0 0 0 0 0 0 0 0 0 1 0 0 1 0 0 0 0 0 0 0 0 0 0 0 0 0 0 0 1 2 0 0 0 0 49 0 6 1 7
0 0 0 0 0 0 0 0 0 0 0 0 0 0 0 0 0 0 0 0 0 0 23 0 0 0 8 0 0 0 0 0 5 4 0 0 0 0 3 2 0 4 27
0 0 0 0 0 0 0 0 0 0 0 0 0 0 0 0 0 0 0 0 0 0 16 0 0 0 2 0 0 0 0 0 0 0 0 0 0 0 0 0 0 0 0
5 0 0 0 0 0 0 0 0 0 0 0 0 0 0 0 2 0 0 0 7 3 0 0 0 0 0 0 0 0 0 0 0 0 0 0 0 0 0 0 1 5 0
7 51 4 25 0 0 0 0 0 0 0 0 0 0 0 0 0 0 0 0 11 21 2 0 0 0 0 0 0 0 0 0 0 5 5 4 0 0 0 0 0 3 4
5 12 68 5 4 0 0 0 0 0 0 0 0 0 0 0 0 0 0 0 0 0 0 0 0 0 0 0 0 0 0 3 1 5 29 5 5 5 0 0 1 2 5
60 94 5 5 5 2 4 0 0 0 0 0 0 0 0 0 0 0 0 0 0 0 0 0 0 0 0 0 0 4 1 5 5 8 98 24 5 5 0 0 5 2 5
3 5 5 5 5 11 2 0 0 0 0 0 0 0 0 0 0 0 0 0 0 0 0 0 0 0 0 0 0 0 2 5 6 12 98 11 11 5 5 0 3 5 2
0 0 5 83 85 45 76 1 0 0 0 0 0 0 0 0 0 0 0 0 0 0 0 0 0 0 0 0 1 0 4 48 91 8 77 68 25 6 37 4 2 4 5
0 0 63 43 5 17 43 5 70 63 0 0 0 0 0 0 0 0 0 0 0 0 0 0 0 0 0 0 0 0 96 100 92 100 100 7 9 5 20 12 2 5 5
0 0 8 16 5 5 5 2 43 6 0 0 0 0 0 0 0 0 0 0 0 0 0 0 0 0 0 0 0 0 96 100 100 100 100 76 100 43 5 5 0 5 5
0 0 0 0 5 5 5 1 0 0 3 0 0 0 0 0 0 0 0 0 0 0 0 0 0 0 0 0 0 0 100 100 100 100 100 100 100 100 11 5 0 5 26
4 4 1 0 62 14 6 49 4 1 5 0 0 0 0 0 0 0 0 0 0 0 0 0 0 0 0 0 0 15 100 100 100 100 100 100 100 100 16 50 27 5 9
0 0 5 4 12 85 73 4 5 5 5 0 0 0 0 0 0 0 0 0 0 0 0 0 0 0 0 0 0 49 100 100 100 100 100 100 100 100 75 77 94 5 4
0 0 0 0 4 4 17 5 11 0 4 0 0 0 0 0 0 0 0 0 0 0 0 0 0 0 0 0 8 9 100 100 100 100 100 97 99 100 100 99 98 8 17
0 0 0 0 0 0 13 96 35 1 0 4 4 0 0 0 0 23 13 13 6 30 38 0 0 0 0 3 4 81 99 100 100 100 100 99 100 100 92 100 88 88 1
0 0 0 0 0 0 0 0 0 0 4 4 35 87 29 0 0 15 42 54 68 86 57 8 0 0 2 50 12 99 96 90 98 100 97 100 100 100 47 43 81 29 36
3 0 0 0 0 0 0 0 0 0 0 11 100 76 92 5 2 0 30 66 100 100 94 41 7 7 20 99 56 100 100 100 100 100 100 100 100 98 100 86 100 14 19
0 0 0 0 0 0 0 1 1 0 1 97 100 84 100 88 98 5 28 63 100 100 100 92 87 34 19 68 74 79 100 100 100 100 100 100 100 100 51 30 26 75 24
4 20 16 0 0 0 0 50 18 56 100 100 100 100 75 20 100 80 57 98 100 100 100 100 100 98 52 67 100 100 100 100 100 100 100 98 98 95 99 99 63 92 1
4 0 0 0 0 27 1 5 5 40 100 100 94 24 100 59 100 100 100 100 100 100 100 100 100 100 100 100 100 100 100 100 100 100 100 100 100 100 100 80 44 3 5
0 0 0 0 0 0 2 5 6 21 2 0 6 66 8 5 98 100 100 100 100 100 100 100 100 100 100 100 100 100 100 100 100 100 100 100 95 39 22 13 5 5 3
0 0 0 0 0 0 0 0 1 10 5 3 0 17 99 100 100 100 100 100 100 100 100 100 100 100 100 100 100 100 100 100 100 100 100 100 100 97 5 5 7 10 0
0 0 0 0 58 93 100 100 85 2 31 0 5 83 98 100 100 100 100 100 100 100 100 100 100 100 100 100 100 100 100 100 100 100 100 100 100 91 5 10 76 2 3

GFSMW_prec_cloud_021.txt.gz
Cloud_Cover
0 0 0 0 0 0 0 0 0 0 0 0 0 0 0 0 0 0 0 0 0 0 0 0 0 0 0 0 0 0 0 0 2 5 4 1 5 5 5 5 4 1 0
0 0 0 0 0 0 0 0 0 0 0 0 0 0 0 0 0 0 0 0 0 0 0 0 0 0 0 0 0 0 0 0 0 0 5 5 5 5 5 5 5 5 5
0 0 0 0 0 0 0 0 0 0 0 0 0 0 0 0 0 0 0 0 0 0 0 0 0 0 0 0 0 0 0 0 0 2 5 5 5 5 5 6 6 5 6
0 0 0 0 0 0 0 0 0 0 0 0 0 0 0 0 0 0 0 0 0 0 0 0 0 0 0 0 0 0 0 0 0 0 5 56 41 47 5 52 100 99 99
0 0 0 0 0 0 0 0 0 0 0 0 0 0 0 0 0 0 0 0 0 0 0 0 0 0 0 0 5 0 0 0 0 0 37 10 45 69 21 68 100 96 98
0 0 0 0 0 0 0 0 0 0 0 0 0 0 0 0 0 0 0 0 0 0 0 0 0 0 0 0 2 0 0 0 0 0 4 88 7 7 6 90 100 60 23
0 0 0 0 0 0 0 0 0 0 0 0 0 0 0 0 0 0 0 0 0 0 0 0 0 0 0 0 0 0 0 0 0 0 1 2 5 8 59 80 100 31 100
0 0 0 0 0 0 0 0 0 0 0 0 0 0 0 0 0 0 0 0 0 0 0 0 0 0 0 0 0 0 0 0 0 0 0 0 5 5 5 15 26 36 97
0 0 0 0 0 0 0 0 0 0 0 0 0 0 0 0 0 0 0 0 0 0 0 0 0 0 0 0 0 0 0 0 0 0 0 0 5 17 11 5 5 5 63
0 4 5 5 5 5 5 1 0 0 0 0 0 0 0 0 0 0 0 0 0 0 0 0 0 0 0 0 0 0 0 0 0 0 0 4 4 1 5 2 4 2 5
2 4 5 24 90 97 5 4 0 1 0 0 0 0 0 0 0 0 0 0 0 0 0 0 0 0 0 0 0 0 0 0 0 0 4 5 58 88 5 5 5 5 4
99 100 92 82 100 63 93 5 2 0 0 0 0 0 0 0 0 0 2 0 0 0 0 0 0 0 0 0 0 0 0 0 0 0 5 18 27 75 56 5 6 100 93
95 70 57 6 96 100 35 5 4 0 0 0 1 9 0 1 0 86 100 0 0 0 0 0 0 0 0 0 0 0 0 0 0 1 6 93 17 33 91 100 99 100 100
5 6 36 5 6 58 30 2 6 1 0 0 0 7 57 80 5 1 15 3 0 0 0 0 0 0 0 0 0 0 0 0 2 12 88 59 53 100 100 84 100 100 100
0 5 5 8 5 3 5 5 4 0 0 0 0 0 0 0 0 0 0 0 0 0 0 0 0 0 0 0 0 0 0 0 0 25 15 80 99 100 100 100 100 100 100
0 0 0 4 5 6 5 0 0 0 4 0 0 0 0 0 0 0 0 0 0 0 0 0 0 0 0 0 0 0 0 0 0 5 95 100 100 100 6 99 99 22 89
0 0 0 0 0 3 5 9 4 0 5 25 100 68 19 1 1 0 0 0 0 0 0 0 0 0 0 0 0 0 0 0 2 66 78 100 100 42 68 100 5 16 16
0 0 0 0 0 0 0 0 2 5 3 92 100 76 3 12 3 0 0 0 0 0 0 0 0 0 0 0 0 0 0 0 89 100 100 56 15 66 100 45 55 6 37
0 0 0 0 0 0 0 0 0 2 0 1 31 1 3 4 2 0 5 5 5 20 5 0 0 0 0 0 0 2 0 90 100 100 64 13 53 100 96 94 99 95 5
0 0 0 0 0 0 0 0 0 0 0 0 5 1 1 4 3 5 6 33 11 5 5 7 2 0 0 22 18 34 8 100 100 100 100 100 87 100 100 99 100 22 20
5 3 0 0 0 0 0 0 0 0 0 0 0 0 0 0 5 5 18 7 25 18 22 69 5 7 19 20 38 41 100 100 99 99 100 100 100 100 100 96 83 19 17
5 5 3 5 2 0 0 0 0 0 0 0 0 0 0 0 0 0 0 11 19 18 39 86 71 93 100 94 93 100 36 66 91 100 100 100 100 100 100 100 49 54 46
0 5 5 5 4 0 0 0 0 0 0 0 0 0 0 1 4 1 2 46 63 33 56 100 100 100 100 98 100 100 100 85 100 100 100 100 100 100 100 100 100 98 100
0 0 4 5 5 5 3 0 0 0 0 0 0 0 0 4 7 1 14 55 63 91 90 100 98 69 95 100 100 100 99 100 100 100 100 100 100 100 100 100 100 100 100
0 0 0 2 5 5 5 4 1 0 0 0 0 4 5 4 4 1 2 16 5 57 100 64 97 78 100 100 100 100 100 100 100 100 100 100 100 100 100 100 100 100 100
91 71 44 28 35 0 0 0 4 0 0 0 0 0 0 0 0 0 9 96 89 81 79 84 75 98 100 100 100 100 100 100 100 100 100 100 100 100 100 100 100 100 100

GFSMW_prec_cloud_024.txt.gz
Cloud_Cover
0 0 0 0 0 0 5 6 0 11 1 1 0 0 0 0 0 0 0 0 0 7 0 59 0 0 12 20 7 5 4 0 1 5 5 5 5 5 5 5 86 5 4
2 0 0 0 0 0 0 1 0 1 7 0 0 0 0 0 0 0 0 0 0 0 0 77 0 1 20 1 4 0 28 0 0 2 10 38 11 10 5 5 85 24 0
15 0 0 0 0 0 0 0 0 0 1 0 0 0 0 0 0 0 0 0 0 0 0 1 0 9 3 25 8 3 1 18 0 0 13 37 79 17 52 61 54 88 5
0 0 0 0 0 0 0 0 0 2 5 0 0 0 0 0 0 0 0 0 0 0 0 0 0 0 2 13 8 17 3 0 0 0 0 0 5 50 94 62 30 96 60
0 0 0 0 4 0 0 0 0 0 0 0 0 0 0 0 0 0 0 0 0 0 0 0 0 0 0 8 8 11 0 1 0 0 0 0 0 0 1 99 58 5 6
0 0 0 0 0 0 0 0 0 0 0 0 0 0 0 0 0 0 0 0 0 0 0 0 0 0 0 2 24 45 13 0 0 0 0 0 0 0 2 5 4 31 51
0 0 0 0 0 0 0 0 0 0 0 0 0 0 0 0 0 0 0 0 0 0 0 0 0 0 0 0 8 41 17 4 0 0 0 0 0 0 4 4 5 5 64
0 0 0 0 0 0 0 0 4 0 0 0 0 0 0 0 0 0 0 0 0 0 0 0 0 0 0 0 6 20 9 2 0 0 0 0 0 0 4 5 5 5 27
0 0 0 0 0 0 0 0 1 3 0 0 0 0 0 0 0 0 0 0 0 0 0 0 0 0 0 0 2 0 13 0 0 0 0 0 5 0 3 8 45 5 10
0 0 0 0 0 0 0 0 0 0 0 0 0 0 0 0 0 0 0 0 0 0 0 0 0 0 0 0 0 1 5 6 0 0 0 0 4 5 87 72 6 5 5
0 0 0 0 0 0 1 0 0 0 0 0 0 0 0 0 0 0 0 0 0 0 0 0 0 0 0 0 0 0 0 2 0 0 0 0 1 5 13 97 61 3 3
1 1 2 0 0 0 3 5 0 0 0 0 5 0 0 0 0 0 0 0 0 0 4 0 0 0 0 0 0 0 0 0 0 0 0 0 2 5 62 65 34 5 5
0 0 0 5 8 5 5 5 5 0 0 0 0 0 4 5 0 0 0 0 0 62 8 0 0 0 0 0 0 0 0 0 0 0 5 7 11 32 98 100 96 3 5
0 2 0 0 5 5 6 100 31 5 4 0 0 0 4 5 0 0 0 0 0 0 0 0 0 0 0 0 0 0 0 0 0 0 5 5 5 62 100 100 92 4 5
1 5 5 5 5 5 6 32 100 100 7 4 2 4 0 0 0 0 0 0 0 0 0 0 0 0 0 0 0 0 0 0 0 0 0 3 12 57 100 98 13 29 5
0 0 5 5 5 5 5 5 5 10 5 4 0 0 0 0 0 0 0 0 0 0 0 0 0 0 0 0 0 0 0 0 0 0 0 2 0 34 100 70 16 100 13
0 0 2 4 0 4 4 2 3 2 0 0 0 2 4 2 0 1 0 0 0 0 0 0 0 0 0 0 0 0 0 0 0 0 0 16 2 100 99 47 95 100 16
0 0 0 0 3 5 4 5 3 2 1 0 4 2 10 92 2 4 3 0 0 0 0 0 0 0 0 0 0 0 0 0 0 0 0 10 52 100 100 20 99 100 99
0 0 0 0 0 0 0 0 0 0 0 0 0 4 5 62 11 1 0 0 0 0 0 0 0 0 0 0 0 0 0 0 0 0 1 35 80 100 99 47 76 100 100
0 0 0 0 0 0 0 0 0 0 0 0 0 0 0 7 96 1 0 0 0 1 0 0 4 0 3 5 5 7 0 2 58 4 1 0 86 100 97 79 100 100 100
1 0 0 0 0 0 0 0 0 0 0 0 0 0 0 0 1 0 0 0 0 0 0 0 1 2 2 4 5 5 4 1 4 5 5 44 100 100 98 81 100 100 100
5 5 5 3 0 0 0 0 0 0 0 0 0 0 0 0 0 0 0 0 0 2 0 5 0 0 2 10 49 89 44 4 4 34 9 93 100 100 100 100 100 100 100
5 5 5 5 4 0 0 0 0 0 0 0 0 0 0 0 0 0 1 26 11 0 22 1 0 1 4 18 32 40 86 86 13 98 100 100 100 100 100 100 100 100 100
0 1 5 4 0 0 0 0 0 0 0 0 0 0 0 0 3 0 14 8 7 44 0 5 5 5 6 6 81 97 70 39 99 95 100 100 100 100 100 100 100 100 100
0 0 0 2 5 1 0 0 0 0 0 0 0 0 0 0 2 2 0 0 0 0 0 5 5 9 13 100 94 88 100 100 100 100 100 100 100 100 100 100 100 100 100
70 67 77 48 0 0 0 1 0 0 0 0 0 3 0 0 0 0 0 87 49 90 100 86 54 34 99 100 100 100 100 100 100 100 100 100 100 100 100 100 100 100 100

GFSMW_prec_cloud_027.txt.gz
Cloud_Cover
0 0 0 0 0 0 0 0 1 7 24 27 6 0 0 0 0 0 0 0 0 10 17 25 88 0 81 3 0 14 2 19 0 6 5 66 97 38 23 46 5 24 100
0 0 0 0 0 0 0 0 0 0 0 6 0 0 0 0 0 0 0 0 0 1 100 1 1 28 13 10 1 0 62 0 0 60 95 86 63 35 36 5 50 13 7
0 0 0 0 0 0 0 0 0 0 0 1 2 0 0 0 0 0 0 0 0 0 89 11 0 16 4 82 10 0 6 98 0 0 51 54 98 42 72 5 12 9 22
0 0 0 0 0 0 0 0 0 0 0 0 0 0 0 0 0 0 0 0 0 0 0 2 0 0 0 0 4 0 14 4 6 0 0 0 14 99 90 87 13 5 5
0 0 0 0 0 0 0 0 0 0 0 0 0 0 0 0 0 0 0 0 0 0 0 0 2 1 0 0 0 1 0 4 0 0 0 0 0 0 88 50 80 15 2
0 0 0 0 0 0 0 0 0 0 0 0 0 0 0 0 0 0 0 0 0 0 0 0 0 0 0 2 0 0 2 0 0 0 0 1 3 10 11 51 28 48 34
0 0 0 0 0 0 0 0 0 0 0 0 0 0 0 0 0 0 0 0 0 0 0 0 0 0 0 0 1 0 0 0 0 0 0 0 0 5 5 5 11 20 45
0 0 0 0 0 0 0 0 0 0 3 0 0 0 0 0 0 0 0 0 0 0 0 0 0 0 0 0 0 0 8 0 0 0 0 0 0 4 18 87 35 37 24
0 0 0 0 0 0 0 0 0 0 5 0 0 0 0 0 0 0 0 0 0 0 0 0 0 0 0 0 0 0 0 0 0 0 0 0 0 5 5 42 73 45 86
1 0 0 0 0 0 0 0 0 5 5 0 0 0 0 0 0 0 0 0 0 0 0 0 0 0 0 0 0 0 0 0 0 0 0 0 0 1 7 15 47 8 10
0 0 0 0 0 0 0 0 0 0 1 0 0 0 0 0 0 0 0 0 0 0 0 0 0 1 0 0 0 0 0 0 0 0 0 0 0 5 4 43 1 1 3
0 0 0 0 0 0 0 0 0 0 0 0 0 0 0 0 0 0 0 0 0 0 0 0 6 68 0 0 0 0 0 0 0 0 0 0 0 0 5 5 0 3 4
0 0 0 0 0 0 0 0 0 0 0 0 0 2 0 0 0 0 0 0 0 0 0 0 0 0 0 0 0 0 0 0 0 0 0 0 2 0 0 0 0 5 5
2 2 2 0 0 0 0 0 0 2 5 0 0 0 0 0 0 0 0 0 0 0 0 0 0 0 0 0 0 0 0 0 0 0 0 0 0 2 1 5 0 0 0
0 0 0 0 0 0 0 3 0 3 0 0 0 0 0 0 0 0 0 0 0 0 0 0 0 0 0 0 0 0 0 0 0 0 0 0 0 0 0 0 0 0 0
0 0 0 0 0 0 0 5 2 5 72 44 4 0 0 0 0 0 0 1 0 0 0 0 0 0 0 0 0 0 0 0 0 0 0 0 0 5 0 0 0 0 3
0 0 0 1 0 0 0 0 0 2 5 5 64 95 100 28 5 4 3 0 0 0 0 0 0 0 0 0 0 0 0 0 0 0 0 0 0 0 0 0 0 0 5
0 0 0 1 5 4 0 4 5 2 5 5 4 0 0 0 5 74 14 2 0 0 0 0 0 0 0 0 0 0 0 0 0 5 0 0 0 1 0 0 0 5 5
0 0 0 0 1 4 0 0 0 2 5 5 5 0 0 0 0 2 78 4 0 0 0 0 0 0 0 0 0 0 0 0 0 0 1 0 0 1 0 0 34 100 89
0 0 0 0 0 3 2 0 0 0 4 5 5 4 0 0 0 0 1 5 3 0 0 0 0 0 0 0 0 2 0 0 0 0 4 0 0 0 42 41 100 100 100
0 0 0 0 0 0 0 0 0 0 0 0 0 0 0 0 0 0 0 0 1 0 0 0 0 0 0 0 1 4 1 3 5 5 1 0 0 4 35 100 100 100 100
0 0 0 0 0 0 0 0 0 0 0 0 0 0 0 0 0 0 0 0 0 0 0 2 0 0 0 1 15 2 1 18 6 5 5 3 2 7 98 100 100 100 100
0 0 0 0 0 0 0 0 0 0 0 0 0 0 0 0 0 0 0 0 1 0 6 6 0 0 0 0 45 27 5 18 3 18 16 100 100 100 100 100 100 100 100
5 3 0 0 0 0 0 0 0 0 0 0 0 0 0 0 0 0 9 6 0 19 33 10 8 5 26 1 0 1 9 56 26 18 45 84 100 100 100 100 100 100 100
0 2 5 3 1 0 1 6 6 14 0 0 0 0 0 0 7 2 0 6 3 4 14 21 11 9 11 9 34 49 45 0 66 98 100 98 100 100 100 100 100 100 100
67 51 39 34 33 36 57 64 10 0 7 12 2 2 0 0 1 1 9 7 16 26 91 100 56 12 20 16 82 84 72 59 96 63 100 100 100 100 100 100 100 100 100

GFSMW_prec_cloud_030.txt.gz
Cloud_Cover
0 0 0 0 40 0 0 0 0 0 5 0 0 0 0 2 0 0 0 0 1 12 2 0 46 3 20 3 0 0 0 0 0 0 0 1 6 10 100 100 14 80 100
0 0 0 0 0 0 0 0 0 0 0 0 0 0 0 0 0 0 0 0 99 86 0 0 32 59 73 1 0 0 30 2 0 55 99 90 16 43 37 0 0 9 100
0 0 0 0 0 0 0 0 0 0 0 0 0 0 0 0 0 0 0 0 7 100 99 0 0 30 50 19 0 0 0 0 0 4 39 59 77 46 96 5 3 23 100
0 0 0 0 0 0 0 0 0 0 0 0 0 0 0 0 0 0 0 0 0 7 42 0 0 0 4 2 0 0 0 6 5 0 0 0 18 2 63 5 19 67 89
0 0 0 0 0 0 0 0 0 0 0 0 0 0 0 0 0 0 0 0 0 0 0 10 0 0 0 0 0 0 0 0 0 0 0 0 0 0 27 17 29 5 61
21 0 0 0 0 0 0 0 0 0 0 0 0 0 0 0 0 0 0 0 0 0 0 0 0 0 0 0 0 0 0 0 0 0 0 0 0 3 5 100 63 45 21
40 0 0 0 0 0 0 0 0 0 0 0 0 0 0 0 0 0 0 0 0 0 0 0 0 0 0 0 0 0 0 0 0 0 0 0 0 24 0 11 58 37 67
15 3 0 0 0 0 0 0 0 0 0 0 0 0 0 0 0 0 0 0 0 0 0 0 0 0 0 0 0 0 0 0 0 0 0 0 0 0 0 2 1 0 87
97 2 0 0 0 0 0 0 0 0 0 4 4 0 0 0 0 0 0 0 0 0 0 0 0 0 0 0 0 0 0 0 0 0 0 0 0 0 0 0 0 0 2
5 5 0 0 0 0 0 0 0 0 0 5 2 0 0 0 0 0 0 0 0 0 0 0 0 0 2 4 0 0 0 0 0 0 0 0 0 0 0 0 0 0 0
22 5 0 0 0 0 0 0 0 0 0 0 0 0 0 0 0 0 0 0 0 0 0 0 0 0 1 61 22 2 0 0 0 0 0 0 0 0 0 0 0 0 0
97 6 0 0 0 0 0 0 0 0 0 1 5 1 0 0 0 0 0 0 0 0 0 0 0 0 0 0 0 0 0 0 0 0 0 0 0 0 0 0 0 0 0
44 31 2 0 0 0 0 0 0 0 0 0 0 0 0 0 0 0 0 0 0 0 0 0 0 0 0 0 0 0 0 0 0 0 0 0 0 0 0 0 0 0 0
8 5 3 0 0 0 0 0 0 0 0 0 0 0 0 0 0 0 0 0 0 0 0 0 0 0 0 0 0 0 0 0 0 0 0 0 0 0 0 0 0 1 0
7 79 32 11 4 0 0 0 0 0 0 0 0 0 0 0 0 0 0 0 0 0 0 0 0 0 0 0 0 0 0 0 0 0 0 0 0 0 0 0 0 0 0
0 5 5 14 5 1 0 0 0 0 0 0 0 0 0 0 0 0 0 0 0 0 0 1 3 0 0 0 0 0 0 0 0 0 0 0 0 0 0 0 0 0 0
0 0 0 0 0 0 0 0 0 0 0 0 0 0 0 0 0 0 0 0 0 4 5 3 0 0 0 0 0 0 0 0 0 0 0 0 0 0 0 0 0 0 0
0 0 0 0 0 0 0 0 0 0 0 0 0 0 4 5 45 100 100 82 5 5 0 0 0 0 0 0 0 0 0 0 0 0 0 0 0 0 0 0 0 0 0
0 0 0 0 0 0 0 0 0 0 0 0 4 3 0 5 0 1 1 0 5 5 5 0 0 0 0 0 0 0 0 0 0 0 0 0 0 0 0 0 0 100 57
0 0 0 0 0 1 6 5 0 0 0 5 64 100 18 5 2 2 0 0 0 4 17 2 1 0 0 0 0 2 0 0 0 0 0 0 0 5 0 5 60 100 100
0 0 0 0 0 0 0 10 20 5 1 0 0 4 5 5 5 5 0 0 0 7 0 0 6 1 0 3 20 62 56 5 3 0 0 1 4 99 5 41 100 100 100
0 0 0 0 0 0 0 0 1 5 5 5 5 5 5 5 10 26 5 0 0 0 0 17 0 0 0 34 20 23 60 62 95 12 0 2 8 100 92 26 100 100 100
0 0 0 0 0 0 0 0 0 0 0 0 0 0 0 0 0 0 0 0 0 0 0 2 0 10 14 4 30 39 16 8 40 96 74 54 94 100 100 61 100 100 100
7 0 0 0 0 0 0 0 0 0 0 0 0 0 0 0 0 0 0 0 0 4 0 19 36 21 0 0 1 5 17 56 28 0 7 77 85 100 100 100 100 100 100
0 1 2 22 5 0 0 0 0 0 0 0 0 0 0 0 2 4 0 28 0 0 23 13 33 46 33 70 90 88 98 68 61 73 66 52 66 92 67 100 100 100 100
4 12 0 73 20 2 59 11 0 0 0 0 0 0 0 0 0 1 1 1 98 100 100 100 83 100 86 100 100 100 100 88 40 10 40 75 97 98 100 65 80 100 100

GFSMW_prec_cloud_033.txt.gz
Cloud_Cover
1 7 0 22 0 0 0 0 0 0 0 0 0 0 0 0 0 0 0 7 8 5 5 5 36 12 0 0 0 0 0 0 0 3 16 0 0 64 5 47 97 31 18
62 0 0 0 0 0 0 0 0 0 0 0 0 0 0 0 0 0 1 100 25 4 2 61 67 100 32 0 0 0 0 0 0 0 92 24 0 0 23 64 82 93 50
34 0 0 0 0 0 0 0 0 0 0 0 0 0 0 0 0 0 1 95 60 78 4 23 34 4 3 0 0 0 0 0 0 4 0 0 0 17 89 16 70 6 5
42 94 2 0 0 0 0 0 0 0 0 0 0 0 0 0 0 0 0 1 86 100 44 0 0 0 1 0 0 0 0 0 0 0 0 0 4 0 0 0 5 37 8
74 100 0 0 0 0 0 0 0 0 0 0 0 0 0 0 0 0 0 0 0 0 0 1 0 0 0 0 0 0 0 0 0 0 0 0 0 0 0 3 78 5 4
100 100 0 0 0 0 0 0 0 0 0 0 0 0 0 0 0 0 0 0 0 0 0 0 0 0 0 0 0 0 0 0 0 0 0 0 0 0 0 0 26 2 3
100 100 100 0 0 0 0 0 0 0 0 0 0 0 0 0 0 0 0 0 0 0 0 0 0 1 0 0 0 0 0 0 0 0 0 0 0 0 0 0 0 0 0
54 54 94 0 0 0 0 0 0 0 0 0 0 0 0 0 0 0 0 0 0 0 0 0 0 0 0 0 0 0 0 0 0 0 0 0 0 0 0 0 0 0 0
4 0 0 0 0 0 0 0 0 0 0 0 0 0 0 0 0 0 0 0 0 0 0 0 0 0 0 0 5 4 0 0 0 0 0 0 0 2 0 0 0 0 0
4 0 0 0 0 0 0 0 0 0 0 0 0 0 0 0 0 0 0 0 0 0 0 0 0 0 0 0 0 3 1 0 1 0 0 0 0 1 0 0 0 0 0
5 0 0 0 5 0 0 0 0 0 0 0 0 0 0 0 0 0 0 0 0 0 0 0 0 0 0 0 0 0 0 0 0 0 0 0 0 0 0 0 0 0 2
5 0 0 0 5 0 0 0 0 0 0 0 0 0 0 0 0 0 0 0 0 0 0 0 0 0 0 0 0 0 0 0 0 0 0 0 0 0 0 0 0 0 0
6 5 1 0 4 0 0 0 0 0 0 0 0 0 0 0 0 0 0 0 0 0 0 0 0 0 0 0 0 0 0 0 0 0 0 0 0 0 0 0 0 0 0
57 10 5 0 0 0 0 0 0 0 0 0 0 0 0 1 4 0 0 0 0 0 0 0 0 0 0 0 0 0 0 0 0 0 0 0 0 0 0 0 0 0 0
7 5 2 0 0 0 0 0 0 0 0 0 0 0 0 5 5 0 0 0 0 0 0 0 0 0 0 0 0 0 0 0 0 0 0 0 0 0 0 0 0 0 0
5 5 5 5 0 0 0 0 0 0 0 0 0 0 0 0 0 0 0 0 0 0 0 0 0 0 0 3 0 0 0 0 0 0 0 0 0 0 0 0 0 0 0
3 10 5 5 0 0 0 0 0 0 0 0 0 0 0 1 0 0 0 0 0 0 0 0 0 0 4 0 0 0 0 0 0 0 0 0 0 0 0 0 0 0 0
0 0 0 0 0 2 0 0 0 0 0 0 0 0 0 5 3 0 0 0 3 2 12 25 5 4 0 0 0 0 0 0 0 0 0 0 0 0 0 3 3 2 0
0 0 0 0 0 1 2 5 4 0 0 0 0 0 0 5 31 5 3 2 11 69 81 47 80 2 0 0 0 0 0 0 0 1 4 5 2 0 0 0 28 18 6
0 0 0 0 0 0 4 5 4 4 0 0 0 13 100 99 94 5 5 5 1 0 0 0 5 2 3 2 12 14 4 0 5 1 3 3 2 7 6 4 4 100 100
0 0 0 0 0 0 0 0 2 3 1 0 2 5 5 41 76 5 5 5 5 4 1 4 5 5 5 15 52 76 77 53 37 12 3 9 25 37 86 100 89 60 98
0 0 0 0 0 0 0 0 0 4 5 4 5 1 2 0 0 3 5 9 15 5 5 5 9 7 2 74 66 58 100 100 83 84 100 88 71 69 74 82 22 74 100
0 0 0 0 0 0 0 0 0 0 0 2 5 11 5 5 5 6 16 28 53 55 5 4 17 1 4 37 89 90 34 23 8 0 2 28 32 98 100 100 100 100 99
0 5 0 0 0 0 0 0 0 0 0 0 0 2 5 5 5 5 5 5 4 4 63 61 24 5 39 16 6 2 62 86 53 72 45 6 32 100 99 97 96 100 100
0 0 5 4 5 2 0 0 0 0 0 0 0 0 0 0 0 0 2 0 2 13 6 3 2 0 17 6 62 58 95 51 28 57 58 36 85 79 96 93 99 60 83
0 0 0 2 10 38 2 0 0 0 0 0 0 0 0 0 0 0 18 92 71 98 100 98 98 95 79 98 100 100 100 100 100 52 20 7 12 48 81 100 100 96 100

GFSMW_prec_cloud_036.txt.gz
Cloud_Cover
1 12 2 0 0 0 0 0 0 0 0 0 0 0 0 0 0 0 26 5 52 40 53 4 5 4 0 0 0 0 0 0 0 0 0 22 5 13 6 5 4 5 5
5 0 0 0 0 0 0 0 0 0 0 0 0 0 0 0 0 0 3 63 6 3 7 33 26 7 5 2 0 0 0 0 0 0 0 0 0 15 61 5 5 5 5
94 2 97 19 0 0 0 0 0 0 0 0 0 0 0 0 2 0 90 17 38 34 5 74 38 0 0 0 0 0 0 0 0 0 0 0 0 0 4 0 0 5 5
98 42 20 5 0 0 0 0 0 0 0 0 0 0 0 0 0 0 12 48 33 58 8 3 0 0 3 0 0 0 0 0 0 0 0 0 0 0 1 0 0 0 2
5 69 18 12 0 0 0 0 0 0 0 0 0 0 0 0 0 0 0 1 6 73 41 4 0 0 0 0 0 0 0 0 0 0 0 0 0 0 0 0 0 4 5
98 82 99 50 4 0 0 0 0 0 0 0 0 0 0 0 0 0 0 0 2 0 0 3 0 0 0 0 0 0 0 0 0 0 0 0 0 0 0 0 0 0 6
99 100 74 31 4 0 0 0 0 0 0 0 0 0 0 0 0 0 0 0 0 0 0 0 0 0 0 0 0 0 0 0 0 0 0 0 0 0 0 0 0 0 0
58 89 100 5 35 1 0 0 0 0 0 0 0 0 0 0 0 0 0 0 0 0 0 0 0 0 0 0 0 0 0 0 0 0 0 0 1 0 0 0 0 0 0
0 38 3 100 14 79 0 0 0 0 0 0 0 0 0 0 0 0 0 0 0 0 0 0 0 0 0 0 0 0 0 0 0 0 0 0 0 3 0 0 0 0 0
4 5 3 91 66 17 0 0 0 0 0 0 0 0 0 0 0 0 0 0 0 0 0 0 0 0 0 0 0 0 0 0 4 0 0 0 0 0 0 0 0 0 0
5 4 0 4 2 0 0 0 0 0 0 0 0 0 0 0 0 0 0 0 0 0 0 0 0 0 0 0 0 0 0 0 0 0 0 0 0 0 0 0 0 0 0
1 2 0 4 0 0 0 0 0 0 0 0 0 0 0 0 0 0 0 0 0 0 0 0 0 0 0 0 0 0 0 0 0 0 0 0 0 0 0 0 0 0 0
0 0 3 5 0 0 0 0 0 0 0 0 0 0 0 0 0 0 0 0 0 0 0 0 0 0 0 0 0 0 0 0 0 0 0 0 0 0 0 0 0 0 0
0 0 5 5 5 5 3 0 0 0 0 0 0 0 0 0 0 0 0 0 0 0 0 0 0 0 0 0 0 0 0 0 0 0 0 0 0 0 0 0 0 0 0
0 0 1 1 3 5 5 0 0 0 0 0 0 0 0 0 0 3 0 5 4 0 0 0 0 0 0 0 0 0 0 0 0 0 0 0 0 0 0 0 0 0 0
0 5 1 0 1 2 3 0 0 0 0 0 0 0 0 0 0 5 5 23 5 5 5 2 0 0 0 0 0 0 0 0 0 0 0 0 0 0 0 0 0 0 3
0 0 0 0 0 5 5 0 0 0 0 0 0 0 0 0 0 5 4 5 4 5 0 0 0 0 0 0 1 5 3 0 0 0 0 0 0 0 0 0 0 0 1
0 0 0 0 3 5 5 5 5 0 0 0 1 1 0 3 5 2 2 0 0 6 0 0 0 0 14 44 37 4 0 0 0 0 0 0 0 0 0 0 3 3 5
0 0 0 0 0 0 8 12 2 0 0 1 2 18 4 100 91 27 4 3 0 0 0 0 3 11 86 40 6 2 0 0 0 0 0 0 2 5 5 5 5 8 2
0 0 0 0 0 0 6 8 5 5 5 0 0 0 5 58 97 100 7 5 4 1 0 0 1 0 5 3 4 16 5 3 0 0 5 29 72 100 97 93 48 43 17
0 0 0 0 0 0 0 1 4 28 36 3 0 1 5 54 100 100 71 60 99 12 16 3 0 0 0 9 30 26 38 45 26 28 12 1 11 31 53 82 100 100 100
0 0 0 0 0 0 0 0 0 87 73 32 21 0 56 76 14 52 58 51 5 5 77 91 1 0 0 57 78 47 70 100 95 100 96 100 83 16 15 85 93 100 100
0 0 0 0 0 0 0 0 0 0 2 9 6 5 61 47 37 12 25 5 20 67 5 2 2 11 10 12 100 99 62 61 29 27 84 91 10 13 99 98 100 100 100
4 0 0 3 13 0 0 0 0 0 0 0 3 5 5 2 0 0 0 0 0 0 0 16 36 23 27 32 63 84 97 100 93 78 40 36 91 96 96 59 83 97 100
0 0 0 1 0 0 0 0 0 0 0 0 0 0 1 16 13 81 56 11 22 20 5 5 5 33 35 38 95 93 69 77 100 100 100 94 71 58 58 62 75 99 97
0 0 2 0 0 0 0 0 0 0 0 0 0 0 0 6 21 38 23 59 22 91 73 51 10 8 23 22 55 100 100 100 100 91 68 41 40 47 43 66 86 96 100

GFSMW_prec_cloud_042.txt.gz
Cloud_Cover
0 1 5 0 0 0 0 0 0 0 0 2 0 0 0 0 0 0 0 0 0 0 0 0 1 5 0 0 0 0 0 0 0 0 1 0 0 9 0 2 0 0 0
5 4 4 1 0 0 0 0 0 0 0 0 0 0 0 0 0 0 0 0 0 0 0 5 0 0 0 0 0 0 0 0 0 0 0 0 0 0 0 1 1 0 0
5 4 0 12 5 3 0 0 0 0 0 0 0 0 0 0 0 4 5 0 0 0 5 2 0 0 0 0 0 0 0 0 0 0 0 0 0 0 0 0 0 0 0
5 5 0 3 5 9 1 0 0 0 0 0 0 0 0 0 0 0 0 0 0 4 5 2 0 0 0 0 0 0 0 0 0 0 0 0 0 0 0 0 0 0 0
5 5 4 0 0 1 13 0 0 0 0 0 0 0 0 0 0 0 0 0 5 5 5 4 0 0 0 0 0 0 0 0 0 0 0 0 0 0 0 0 0 0 0
5 5 2 5 4 5 38 33 0 0 0 0 0 0 0 0 0 0 5 5 4 5 4 5 2 0 0 0 0 0 0 0 0 0 0 0 0 0 0 0 0 0 0
5 5 5 38 10 9 5 3 3 0 0 0 0 0 0 0 0 0 0 1 4 5 4 0 0 0 0 0 0 0 0 0 0 0 0 0 0 0 0 0 0 0 0
5 33 50 61 31 5 4 5 5 0 0 0 0 0 0 0 0 0 0 0 4 5 1 0 0 0 0 0 0 0 0 0 0 0 0 0 0 0 0 0 0 0 0
5 5 29 3 0 0 5 4 2 25 0 0 0 0 0 0 0 0 0 0 0 5 0 0 0 0 0 0 0 0 0 0 0 0 0 0 0 0 0 0 0 0 0
0 6 25 19 0 0 4 4 3 5 4 0 0 0 0 0 0 0 0 0 0 0 0 0 0 0 0 0 0 0 0 0 0 0 0 0 0 0 0 0 0 0 0
0 5 5 79 10 1 0 71 92 23 4 5 0 0 0 0 0 0 0 0 0 0 0 0 0 0 0 0 0 0 0 0 0 0 0 0 0 0 0 0 0 0 0
0 5 5 89 95 1 0 0 0 2 2 2 5 5 0 0 0 0 0 0 0 0 0 0 0 0 0 0 0 0 0 5 0 0 0 0 0 0 0 0 0 0 0
8 3 69 5 5 43 0 0 0 2 0 5 5 4 0 0 0 0 0 0 3 0 0 0 0 0 0 0 2 0 5 0 0 0 0 0 0 0 0 0 0 0 0
28 8 61 56 0 3 24 0 0 0 0 1 0 1 0 0 0 0 0 0 0 0 0 0 5 5 5 1 5 4 4 0 0 0 0 2 0 0 0 0 0 0 0
0 5 5 65 86 4 4 4 2 0 0 0 0 0 0 0 0 0 0 0 0 0 0 0 0 0 5 5 5 5 0 0 0 0 0 5 0 0 0 0 0 0 0
0 0 4 6 70 1 5 5 0 0 0 0 0 0 0 0 0 0 0 0 0 0 0 0 0 0 20 79 40 5 3 0 0 0 0 3 0 1 0 0 0 0 0
0 0 3 55 5 3 4 4 0 0 0 0 0 0 0 0 0 0 0 0 0 0 0 0 3 5 5 38 49 5 1 0 0 5 5 0 0 1 0 10 21 13 0
0 0 5 5 20 90 3 1 5 0 0 0 0 0 0 0 0 0 0 0 0 0 5 0 0 5 5 12 57 62 0 0 0 11 4 0 0 0 1 5 5 1 0
0 1 2 4 5 1 5 0 5 3 0 0 0 0 0 0 0 0 0 0 9 0 0 0 0 1 5 5 5 6 0 0 0 0 0 0 0 0 5 5 5 85 74
6 0 5 0 5 70 5 5 5 3 0 0 0 0 0 0 0 0 0 0 2 12 22 1 3 3 1 5 5 34 0 0 0 0 0 1 1 5 11 6 6 60 87
53 0 2 58 95 82 100 5 89 3 1 2 0 0 0 0 0 0 3 5 5 4 28 43 16 10 5 6 5 19 5 2 16 40 22 17 14 32 62 89 100 100 100
97 98 100 38 27 56 68 93 80 5 5 5 5 0 4 5 5 1 42 99 84 30 40 46 46 84 16 77 72 19 69 2 3 16 15 2 54 84 100 100 100 100 100
100 98 40 18 1 3 5 35 6 71 100 97 96 2 0 9 68 15 8 8 9 20 72 73 83 97 84 90 90 97 36 55 20 0 4 74 98 100 100 100 100 100 100
100 60 73 36 21 27 100 78 11 4 40 77 99 100 88 0 1 18 100 15 100 94 73 23 64 13 44 46 73 91 99 99 96 64 100 100 100 100 100 100 100 100 100
100 48 75 60 27 30 100 100 96 76 92 100 100 80 100 73 100 67 55 58 83 100 91 77 36 49 75 45 60 77 97 99 89 94 100 100 100 100 100 100 100 100 100
100 75 94 73 26 5 23 18 45 51 13 35 5 60 22 95 82 56 95 100 100 100 100 100 48 91 84 100 91 99 100 100 100 100 100 100 100 100 100 100 82 60 23

GFSMW_prec_cloud_045.txt.gz
Cloud_Cover
0 0 0 0 0 0 0 0 0 0 0 3 0 0 0 0 0 0 0 0 0 0 0 0 0 0 0 0 0 0 0 0 0 0 0 0 0 0 0 0 0 0 0
1 0 0 0 0 0 0 0 0 0 0 0 0 0 0 0 0 0 0 0 0 0 3 0 1 0 0 1 0 0 0 0 0 0 0 0 0 0 0 0 0 0 0
50 0 0 0 0 0 0 0 0 0 0 0 0 0 0 0 0 0 0 4 0 0 0 0 0 0 24 1 0 0 0 0 0 0 0 0 12 0 0 0 0 0 0
4 1 0 0 1 0 0 0 0 0 0 0 0 0 0 0 0 0 1 4 1 0 0 0 4 0 0 4 0 0 0 0 0 0 0 0 0 0 2 0 0 0 0
0 2 1 0 0 1 0 0 0 0 0 0 0 0 0 0 0 0 0 5 0 0 0 0 0 0 0 0 0 0 0 0 0 0 0 0 0 0 0 0 0 0 0
4 5 4 1 0 0 0 1 0 0 0 0 0 0 0 0 0 0 0 0 1 1 2 0 0 0 0 0 0 0 0 0 0 0 0 0 0 0 0 0 0 0 0
4 4 2 2 0 5 4 2 0 1 0 0 0 0 0 0 0 0 0 4 0 3 3 2 0 0 0 0 0 0 0 0 0 0 0 0 0 0 0 0 0 0 0
5 5 4 3 7 1 2 0 0 3 0 0 0 0 0 0 0 0 0 0 0 1 0 0 0 0 0 0 0 0 0 0 0 0 0 0 0 0 0 0 0 0 0
5 3 3 5 5 0 0 0 0 5 5 9 0 0 0 0 0 0 0 0 0 5 0 0 0 0 0 0 0 0 0 0 0 0 0 0 0 0 0 0 0 0 0
15 5 4 5 12 1 0 0 0 0 2 9 32 0 0 0 0 0 0 0 0 0 0 0 0 0 0 0 0 0 0 0 0 0 0 0 0 0 0 0 0 0 0
22 5 5 4 4 0 0 0 0 0 5 0 5 1 0 0 0 0 0 0 0 0 0 0 0 0 0 0 0 0 0 0 0 0 0 0 0 0 0 0 0 0 0
17 5 5 5 3 0 0 0 0 0 5 2 3 1 2 0 0 0 0 0 0 0 0 0 0 0 0 5 5 3 0 0 0 0 0 0 0 0 0 0 0 0 0
79 49 33 7 5 5 0 0 0 0 0 8 11 43 6 5 0 0 0 0 0 0 0 0 0 1 5 10 5 5 5 5 0 0 0 0 0 0 0 0 0 0 0
8 12 94 32 41 5 5 0 0 0 0 0 0 7 50 4 3 0 0 0 0 0 0 0 5 5 5 5 5 24 54 4 5 0 0 0 0 5 3 0 0 2 0
5 4 9 10 16 17 3 4 0 0 0 0 0 0 4 5 3 0 0 0 0 0 0 0 0 5 5 5 5 9 86 12 5 4 0 0 0 5 0 0 0 5 3
5 5 5 5 5 5 5 4 3 0 0 0 0 0 0 0 0 0 0 0 0 0 0 0 0 5 5 5 5 5 73 24 5 5 0 0 2 10 4 0 0 5 7
0 3 3 5 6 5 1 3 3 1 0 0 0 0 0 0 0 0 0 0 0 0 0 0 0 0 5 5 7 13 7 5 5 1 0 0 37 5 3 12 27 29 60
0 0 0 5 98 3 9 17 26 0 0 0 0 0 0 0 0 0 0 0 0 0 0 0 0 0 0 5 5 5 5 5 5 5 0 0 0 5 0 0 0 5 5
89 0 0 1 12 67 75 53 5 0 0 0 0 0 0 0 0 0 0 0 0 0 0 0 0 0 0 1 5 10 5 5 5 5 0 0 4 5 2 0 0 0 5
95 0 0 0 0 10 33 97 35 0 0 0 0 0 0 0 0 0 0 0 0 0 0 2 4 5 2 9 0 43 5 5 5 5 4 0 2 0 5 1 0 7 10
96 0 0 0 0 1 91 99 5 1 2 0 0 0 0 0 0 0 0 1 8 0 1 0 0 0 0 0 39 27 5 5 5 5 5 5 2 24 40 58 5 28 22
99 9 0 0 0 16 100 90 7 81 4 0 0 0 0 0 0 0 0 0 4 17 12 16 9 6 26 46 69 36 75 8 9 21 22 15 4 48 74 58 30 51 92
100 99 34 5 0 65 76 5 11 9 4 0 0 0 0 0 0 0 2 14 31 0 11 5 5 5 17 13 86 94 31 50 23 44 42 8 79 100 72 84 96 100 100
100 100 89 81 68 99 99 85 16 96 5 0 2 0 0 0 0 0 0 0 0 13 5 2 5 5 6 42 76 19 65 81 56 90 30 49 76 100 85 100 100 100 100
100 100 100 98 100 79 47 69 100 64 43 96 64 5 56 1 0 5 14 5 4 21 58 12 5 5 5 5 12 28 39 74 61 71 95 100 100 100 100 100 100 100 100
100 100 100 97 93 66 84 33 71 2 45 60 19 100 94 78 4 12 37 100 91 100 100 94 96 80 79 100 100 100 100 100 100 100 100 100 100 100 100 100 100 100 100

GFSMW_prec_cloud_048.txt.gz
Cloud_Cover
0 0 0 0 0 0 0 0 0 0 0 0 0 0 0 0 0 0 0 0 0 0 0 18 4 0 25 59 0 0 0 9 2 4 0 0 0 3 2 13 4 0 3
0 0 0 0 0 0 0 0 0 0 0 0 0 0 0 0 0 1 0 0 0 0 4 4 3 30 15 0 0 0 0 0 0 78 19 39 31 18 40 3 15 8 1
0 0 0 0 0 0 0 0 0 0 0 0 0 0 0 0 0 0 0 0 0 0 0 2 6 5 7 6 0 2 1 14 0 5 88 72 100 76 0 0 0 0 0
0 0 0 0 0 0 0 0 0 0 0 0 0 0 0 0 0 0 3 0 0 3 0 89 1 21 49 0 4 0 0 4 0 0 0 12 10 100 80 0 0 0 0
4 0 0 0 0 0 0 0 0 0 0 0 0 0 0 0 0 0 3 0 0 0 0 57 5 0 0 4 11 0 0 0 10 27 0 0 11 0 98 68 0 0 0
4 0 0 0 0 0 0 0 0 0 0 0 0 0 0 0 0 0 0 0 0 0 0 0 0 0 0 0 2 0 0 0 0 0 0 43 99 37 29 17 4 0 0
4 0 5 0 0 0 0 1 0 0 0 0 0 0 0 0 0 0 0 0 0 0 0 0 0 0 0 1 6 0 8 0 0 0 0 0 0 0 1 2 0 0 0
5 2 1 0 0 0 0 0 2 2 0 0 0 0 0 0 0 0 0 0 0 0 0 0 0 0 0 0 0 0 4 7 0 0 0 0 0 0 0 0 0 0 0
5 5 2 0 0 0 0 0 0 2 4 0 0 0 0 0 0 0 0 0 0 0 0 0 0 0 0 0 2 0 9 8 4 6 1 0 0 0 0 0 0 0 0
60 5 5 0 0 0 0 0 0 0 2 0 0 0 0 0 0 0 0 0 0 0 0 0 0 0 0 0 0 0 3 15 18 0 0 0 0 0 0 0 0 0 0
5 18 7 5 3 0 0 0 0 0 0 0 0 0 0 0 0 0 0 0 0 0 0 0 0 0 0 0 0 0 0 6 5 3 0 0 0 0 0 0 0 0 0
46 60 5 49 4 0 0 0 0 0 0 0 0 0 0 0 0 0 0 0 0 0 0 0 0 0 0 0 0 0 0 0 0 0 0 0 0 0 0 0 0 0 0
94 48 6 5 5 0 4 1 0 0 0 0 4 1 0 0 0 0 0 0 0 0 0 0 0 0 0 0 0 0 0 0 1 5 3 0 0 0 0 5 2 0 0
9 5 5 5 5 2 0 0 0 0 0 0 4 5 5 5 0 0 0 0 0 0 0 0 0 0 0 1 0 0 0 5 5 5 5 1 0 0 0 5 5 0 0
45 5 5 5 5 35 3 3 0 0 0 0 0 0 1 4 5 5 0 0 0 0 0 0 0 0 0 0 5 5 0 5 5 5 5 5 0 0 4 5 14 0 0
63 5 5 5 5 5 5 32 0 0 0 0 0 0 0 0 5 58 55 5 0 0 0 0 0 0 0 0 4 5 5 5 5 5 5 5 3 3 2 53 59 0 0
4 5 5 5 5 33 62 5 5 0 0 0 0 0 0 0 0 3 12 7 0 0 0 0 0 0 0 0 0 0 5 5 5 5 5 5 5 2 0 10 25 13 1
0 2 4 5 5 5 12 19 5 5 0 4 0 0 0 0 0 0 1 0 0 0 0 0 0 0 0 0 0 0 0 5 5 5 5 5 5 5 2 0 2 1 0
0 0 0 0 2 3 10 53 5 0 4 0 0 0 0 0 0 0 0 0 0 0 0 0 0 0 0 0 0 5 0 0 4 5 42 12 5 5 5 0 0 5 1
18 4 0 0 0 0 13 78 5 24 5 4 0 0 0 0 0 0 0 0 0 0 0 0 0 0 0 0 0 48 0 0 0 4 5 5 2 5 20 12 0 0 0
58 8 0 0 0 4 4 5 8 8 67 5 0 0 0 0 0 0 0 0 0 0 0 0 0 0 0 0 4 52 0 0 0 0 0 0 5 5 19 80 71 2 30
80 0 0 0 0 2 4 5 34 100 49 7 0 0 0 0 0 0 0 0 0 0 0 0 0 0 0 12 57 28 73 3 4 0 2 3 5 5 29 45 79 5 58
100 49 0 0 0 0 3 5 73 53 100 62 0 0 0 0 0 0 8 2 9 0 0 0 0 0 0 0 54 52 33 44 14 0 2 84 71 55 66 99 99 77 97
100 100 100 91 78 43 9 4 8 50 93 94 2 0 15 7 0 0 0 0 0 0 0 0 0 0 2 1 5 5 8 66 45 5 9 6 94 97 99 86 46 59 97
100 100 100 100 100 100 100 100 86 16 87 27 11 19 14 30 45 42 13 15 0 18 0 1 5 8 5 4 4 5 5 5 5 6 46 85 90 81 100 100 96 98 100
100 100 100 100 100 100 100 100 100 92 12 12 5 3 4 56 92 96 64 91 84 100 100 100 55 91 74 100 96 100 100 100 99 45 92 98 97 100 100 100 100 100 100